TimeEDT,TemperatureF,Dew PointF,Humidity,Sea Level PressureIn,VisibilityMPH,Wind Direction,Wind SpeedMPH,Gust SpeedMPH,PrecipitationIn,Events,Conditions,WindDirDegrees,DateUTC
12:51 AM,44.1,39.9,85,30.14,10.0,South,5.8,-,N/A,,Clear,170,2013-05-27 04:51:00
1:51 AM,43.0,41.0,93,30.14,10.0,SSE,6.9,-,N/A,,Clear,160,2013-05-27 05:51:00
2:51 AM,42.1,39.0,89,30.14,10.0,SSE,5.8,-,N/A,,Clear,160,2013-05-27 06:51:00
3:51 AM,41.0,37.9,89,30.15,10.0,SSE,3.5,-,N/A,,Clear,160,2013-05-27 07:51:00
4:51 AM,41.0,37.0,86,30.15,10.0,SSE,5.8,-,N/A,,Clear,160,2013-05-27 08:51:00
5:51 AM,41.0,37.9,89,30.16,10.0,South,3.5,-,N/A,,Clear,170,2013-05-27 09:51:00
6:51 AM,46.9,39.9,77,30.18,10.0,Calm,Calm,-,N/A,,Clear,0,2013-05-27 10:51:00
7:51 AM,54.0,39.0,57,30.18,10.0,Calm,Calm,-,N/A,,Partly Cloudy,0,2013-05-27 11:51:00
8:51 AM,60.1,39.0,46,30.18,10.0,West,6.9,-,N/A,,Partly Cloudy,270,2013-05-27 12:51:00
9:51 AM,64.0,36.0,35,30.18,10.0,NW,10.4,-,N/A,,Clear,320,2013-05-27 13:51:00
10:51 AM,68.0,34.0,28,30.17,10.0,WNW,12.7,20.7,N/A,,Partly Cloudy,290,2013-05-27 14:51:00
11:51 AM,68.0,32.0,26,30.16,10.0,NW,15.0,25.3,N/A,,Partly Cloudy,310,2013-05-27 15:51:00
12:51 PM,70.0,35.1,28,30.14,10.0,NW,5.8,20.7,N/A,,Partly Cloudy,310,2013-05-27 16:51:00
1:51 PM,71.1,34.0,26,30.12,10.0,WNW,8.1,20.7,N/A,,Scattered Clouds,300,2013-05-27 17:51:00
2:51 PM,72.0,33.1,24,30.11,10.0,WNW,15.0,23.0,N/A,,Partly Cloudy,300,2013-05-27 18:51:00
3:04 PM,73.4,33.8,23,30.10,10.0,NW,12.7,-,N/A,,Partly Cloudy,310,2013-05-27 19:04:00
3:51 PM,73.0,34.0,24,30.09,10.0,West,10.4,23.0,N/A,,Partly Cloudy,270,2013-05-27 19:51:00
4:36 PM,73.4,32.0,22,30.09,10.0,WNW,15.0,23.0,N/A,,Clear,290,2013-05-27 20:36:00
4:51 PM,73.9,33.1,22,30.09,10.0,WNW,11.5,16.1,N/A,,Clear,300,2013-05-27 20:51:00
5:51 PM,73.0,30.9,21,30.09,10.0,WNW,12.7,18.4,N/A,,Clear,290,2013-05-27 21:51:00
6:51 PM,72.0,34.0,25,30.09,10.0,NW,10.4,-,N/A,,Clear,320,2013-05-27 22:51:00
7:51 PM,66.9,36.0,32,30.11,10.0,NNW,5.8,-,N/A,,Clear,330,2013-05-27 23:51:00
8:51 PM,62.1,37.9,41,30.12,10.0,NNW,6.9,-,N/A,,Clear,330,2013-05-28 00:51:00
9:51 PM,57.0,41.0,55,30.14,10.0,West,3.5,-,N/A,,Clear,270,2013-05-28 01:51:00
10:51 PM,55.9,39.9,55,30.16,10.0,Calm,Calm,-,N/A,,Clear,0,2013-05-28 02:51:00
11:51 PM,51.1,42.1,71,30.18,10.0,West,3.5,-,N/A,,Scattered Clouds,280,2013-05-28 03:51:00